sat.trackr.live / text

‹ back to catalog

STARLINK-32751

NORAD 62753 · 2025-014U

PAYLOAD ACTIVE UNKNOWN

§ Identity

Operator
Country
US
Launch date
2025-01-21
Launch site
AFETR
Launch vehicle
Mass (kg)
RCS (m²)

Purposes: comms

External: N2YO · Heavens-Above · Gunter

§ Orbital elements

Epoch: 2026-05-25T04:35:25.436832Z

Period
94.27 min
Inclination
42.9987°
Eccentricity
0.0001149
Mean motion
15.27590793 rev/d
Perigee alt
482.2 km
Apogee alt
483.8 km
Semi-major
6,861.2 km
B*
4.8326e-4
RAAN
82.6650°
Arg perigee
274.5539°
Mean anomaly
85.5181°
Rev number
7,495

§ Raw data

STARLINK-327511 62753U 25014U   26145.19126663  .00013064  00000+0  48326-3 0  99962 62753  42.9987  82.6650 0001149 274.5539  85.5181 15.27590793 74952

JSON: /api/v1/satellites/62753 · /tle

For live sub-satellite position, see the globe view (requires WebGL).

§ Visibility from observer

Set your observer location to see the next 7 days of passes ≥ 10°. The values pass through the URL so the page stays shareable.

No JS? Fill the form by hand. The geolocation button needs JavaScript.